Bookmark and Share
Track history (hours):
 

Vaagtrans

Last reported at 2014-Apr-15 17:10 UTC. Time now 2014-Apr-16 07:39 UTC.
Position N 67°44' E 014°31'.

Length 40 m; draft 5.5 m.

Type: Ship. MMSI: 258274000.

NotesDate/timePositionNaut miles runAvg speedWind from/ knotsBaromVisibWave heightAir tempDewpointWater temp
2014-Apr-15 17:10N 67°44' E 014°31'810.5
2014-Apr-15 16:26N 67°36' E 014°31'910.3
2014-Apr-15 15:33N 67°27' E 014°28'1010.2
2014-Apr-15 14:33N 67°18' E 014°16'10 5.2
2014-Apr-15 12:34N 67°09' E 014°02'2 1.6
2014-Apr-15 11:33N 67°08' E 013°59'5 4.8
2014-Apr-15 10:31N 67°04' E 013°53'39 9.7
2014-Apr-15 06:31N 66°32' E 012°56'1010.1
2014-Apr-15 05:34N 66°26' E 012°37'7 3.6
2014-Apr-15 03:34N 66°22' E 012°22'0 0.0
2014-Apr-15 02:34N 66°22' E 012°22'0 0.0
2014-Apr-15 01:34N 66°22' E 012°22'0 0.0
2014-Apr-15 00:34N 66°22' E 012°22'0 0.0
2014-Apr-14 23:34N 66°22' E 012°22'0 0.0
2014-Apr-14 22:34N 66°22' E 012°22'0 0.1
2014-Apr-14 21:34N 66°22' E 012°23'0 0.0
2014-Apr-14 20:34N 66°22' E 012°23'0 0.0
2014-Apr-14 19:34N 66°22' E 012°23'6 5.6
2014-Apr-14 18:34N 66°25' E 012°34'1110.3
2014-Apr-14 17:29N 66°32' E 012°56'39 9.8
2014-Apr-14 13:31N 67°04' E 013°53'2010.2
2014-Apr-14 11:34N 67°21' E 014°21'1010.0
2014-Apr-14 10:33N 67°30' E 014°29'15510.0
2014-Apr-13 19:03N 69°33' E 018°44'5 9.2
2014-Apr-13 18:33N 69°37' E 018°54'96 9.6
2014-Apr-13 08:32N 70°30' E 022°47'10 9.6
2014-Apr-13 07:30N 70°36' E 023°10'1010.3
2014-Apr-13 06:33N 70°44' E 023°27'1 0.2
2014-Apr-13 00:33N 70°45' E 023°29'1111.3
2014-Apr-12 23:32N 70°36' E 023°11'98 2.3
2014-Apr-11 04:33N 69°44' E 019°04'156 7.0
2014-Apr-10 06:22N 67°48' E 014°15'910.6
2014-Apr-10 05:30N 67°39' E 014°12'1110.8
2014-Apr-10 04:32N 67°29' E 014°10'1111.0
2014-Apr-10 03:33N 67°18' E 014°07'1110.6
2014-Apr-10 02:33N 67°08' E 014°01'1310.7
2014-Apr-10 01:19N 66°59' E 013°35'3010.6
2014-Apr-09 22:31N 66°33' E 013°01'1111.0
2014-Apr-09 21:33N 66°22' E 012°58'18 2.9
2014-Apr-09 15:29N 66°10' E 012°25'910.1
2014-Apr-09 14:33N 66°20' E 012°23'2 2.3
2014-Apr-09 13:33N 66°22' E 012°23'0 0.0
2014-Apr-09 12:33N 66°22' E 012°23'0 0.0
2014-Apr-09 11:33N 66°22' E 012°23'6 5.7
2014-Apr-09 10:33N 66°25' E 012°34'10 9.7
2014-Apr-09 09:33N 66°31' E 012°53'30 9.2
2014-Apr-09 06:16N 66°58' E 013°30'810.1
2014-Apr-09 05:29N 67°02' E 013°47'9 9.8
2014-Apr-09 04:33N 67°09' E 014°02'1010.0
2014-Apr-09 03:33N 67°18' E 014°16'10 9.7
2014-Apr-09 02:33N 67°26' E 014°27'18 1.3
2014-Apr-08 12:33N 67°44' E 014°31'1111.1
2014-Apr-08 11:33N 67°33' E 014°30'1110.9
2014-Apr-08 10:33N 67°22' E 014°25'5 5.1
2014-Apr-08 09:33N 67°17' E 014°23'0 0.0
2014-Apr-08 08:33N 67°17' E 014°23'0 0.0
2014-Apr-08 07:33N 67°17' E 014°23'0 0.0
2014-Apr-08 06:33N 67°17' E 014°23'0 0.0
2014-Apr-08 05:33N 67°17' E 014°23'5 5.2
2014-Apr-08 04:33N 67°14' E 014°13'1111.0
2014-Apr-08 03:31N 67°04' E 013°55'4210.5
2014-Apr-07 23:33N 66°34' E 012°43'1110.8
2014-Apr-07 22:33N 66°25' E 012°30'4 3.9
2014-Apr-07 21:33N 66°22' E 012°23'0 0.0
2014-Apr-07 20:33N 66°22' E 012°23'0 0.0
2014-Apr-07 19:33N 66°22' E 012°23'0 0.0
2014-Apr-07 17:33N 66°22' E 012°23'0 0.0
2014-Apr-07 16:33N 66°22' E 012°23'5 5.2
2014-Apr-07 15:33N 66°27' E 012°19'6 5.9
2014-Apr-07 14:33N 66°30' E 012°06'0 0.0
2014-Apr-07 13:33N 66°30' E 012°06'3 2.6
2014-Apr-07 12:33N 66°28' E 012°10'9 8.5
2014-Apr-07 11:33N 66°23' E 012°27'2 1.9
2014-Apr-07 10:33N 66°22' E 012°23'0 0.0
2014-Apr-07 09:33N 66°22' E 012°23'3 3.3
2014-Apr-07 08:33N 66°24' E 012°29'9 9.4
2014-Apr-07 07:33N 66°28' E 012°08'2 1.8
2014-Apr-07 06:33N 66°30' E 012°06'1 1.1
2014-Apr-07 05:33N 66°29' E 012°05'1010.2
2014-Apr-07 04:33N 66°25' E 012°29'4 4.1
2014-Apr-07 03:33N 66°22' E 012°23'0 0.0
2014-Apr-07 02:33N 66°22' E 012°23'0 0.0
2014-Apr-07 01:33N 66°22' E 012°23'0 0.0
2014-Apr-07 00:33N 66°22' E 012°23'0 0.0
2014-Apr-06 23:33N 66°22' E 012°23'0 0.0
2014-Apr-06 22:33N 66°22' E 012°23'0 0.0
2014-Apr-06 21:33N 66°22' E 012°23'0 0.0
2014-Apr-06 20:33N 66°22' E 012°23'4 3.9
2014-Apr-06 19:33N 66°25' E 012°29'1110.3
2014-Apr-06 18:32N 66°34' E 012°42'30 9.8
2014-Apr-06 15:31N 66°57' E 013°29'1110.3
2014-Apr-06 14:29N 67°03' E 013°51'1010.3
2014-Apr-06 13:33N 67°11' E 014°05'1010.3
2014-Apr-06 12:33N 67°20' E 014°19'1010.1
2014-Apr-06 11:33N 67°29' E 014°29'  

Dump ship's entire track history

sailing weather and tide predictions

Vaagtrans — LAIZ — position and weather